This is the latest recevied weather packets stored in our database for station/object N2PUI. If no packets are shown the sender has not sent any weather packets the latest 10 day(s).
| Time | Temp. | Humidity | Pressure | Rain* | Wind** | Luminosity | Snow |
|---|---|---|---|---|---|---|---|
| 1777838799 | 12.78° C | 39% | 1010.9 hPa | 0 mm | - | 715 W/m² | - |
| 1777838496 | 12.22° C | 40% | 1010.9 hPa | 0 mm | - | 369 W/m² | - |
| 1777838193 | 12.22° C | 41% | 1010.9 hPa | 0 mm | - | 208 W/m² | - |
| 1777837890 | 11.67° C | 40% | 1010.8 hPa | 0 mm | - | 259 W/m² | - |
| 1777837587 | 11.67° C | 40% | 1011.3 hPa | 0 mm | - | 264 W/m² | - |
| 1777837282 | 11.67° C | 40% | 1011 hPa | 0 mm | - | 228 W/m² | - |
| 1777836979 | 11.67° C | 40% | 1011.3 hPa | 0 mm | - | 294 W/m² | - |
| 1777836675 | 12.22° C | 40% | 1011.2 hPa | 0 mm | - | 453 W/m² | - |
| 1777836371 | 12.22° C | 40% | 1011.4 hPa | 0 mm | - | 254 W/m² | - |
| 1777836066 | 11.67° C | 40% | 1011.4 hPa | 0 mm | - | 241 W/m² | - |
| 1777835758 | 11.67° C | 40% | 1011.5 hPa | 0 mm | - | 233 W/m² | - |
| 1777835454 | 12.78° C | 38% | 1011.4 hPa | 0 mm | - | 266 W/m² | - |
| 1777835151 | 11.67° C | 38% | 1011.4 hPa | 0 mm | - | 391 W/m² | - |
| 1777834848 | 11.67° C | 39% | 1011.6 hPa | 0 mm | - | 310 W/m² | - |
| 1777834539 | 11.67° C | 39% | 1011.8 hPa | 0 mm | - | 232 W/m² | - |
| 1777834239 | 11.67° C | 39% | 1011.5 hPa | 0 mm | - | 289 W/m² | - |
| 1777833935 | 11.67° C | 39% | 1011.3 hPa | 0 mm | - | 321 W/m² | - |
| 1777833632 | 12.22° C | 38% | 1011.5 hPa | 0 mm | - | 295 W/m² | - |
| 1777833328 | 11.67° C | 38% | 1011.7 hPa | 0 mm | - | 875 W/m² | - |
| 1777833026 | 12.22° C | 37% | 1011.8 hPa | 0 mm | - | 839 W/m² | - |
| 1777832724 | 11.67° C | 39% | 1011.8 hPa | 0 mm | - | 844 W/m² | - |
| 1777832422 | 11.11° C | 38% | 1012 hPa | 0 mm | - | 834 W/m² | - |
| 1777832118 | 11.11° C | 38% | 1011.8 hPa | 0 mm | - | 309 W/m² | - |
| 1777831815 | 12.22° C | 40% | 1012.1 hPa | 0 mm | - | 326 W/m² | - |
| 1777831512 | 11.67° C | 40% | 1012.1 hPa | 0 mm | - | 900 W/m² | - |
* Rain latest hour (hover to see other rain measurements)
** Current wind speed in m/s (hover to see current wind gust speed)